Location: Avully
(45.9633°N, 6.0228°E)
Time: 11:32:54
(UTC+00:00)

METEOR-M - Pass Details

Date: 23 May 2024
Orbit: 815 x 817 km, 98.6° (Epoch: 14 June)

Event Time Altitude Azimuth Distance (km) Brightness Sun altitude
Rises 03:01:54 0° 14° (NNE) 3,356 8.3 -8.3°
Reaches altitude 10° 03:04:15 10° 14° (NNE) 2,420 7.5 -8.0°
Maximum altitude 03:09:37 88° 100° (E) 824 4.2 -7.3°
Drops below altitude 10° 03:14:58 10° 195° (SSW) 2,403 6.1 -6.6°
Enters shadow 03:17:04 - 196° (SSW) 3,241 6.7 -6.3°
